Tracking 25710 objects as of 5-Jul-2022
HD Live streaming from Space Station
objects crossing your sky now

FENGYUN 1C DEB

Track FENGYUN 1C DEB now!
10-day predictions


NORAD ID: 37421
Int'l Code: 1999-025EGP
Perigee: 811.5 km
Apogee: 1,429.0 km
Inclination: 98.9 °
Period: 107.5 minutes
Semi major axis: 7491 km
RCS: 0.0016 m2 (small)
Launch date: May 10, 1999
Source: People's Republic of China (PRC)
Launch site: Taiyaun Space Center, China (TSC)

Note: This is SATELLITE DEBRIS
aabbcc
Your satellite tracking list
Your tracking list is empty




NASA's NSSDC Master Catalog

Two Line Element Set (TLE):
1 37421U 99025EGP 22184.69737396 -.00000007  00000-0  34643-4 0  9991
2 37421  98.9172 276.7894 0412178   4.5448 355.9250 13.38971831441019
Source of the keplerian elements: AFSPC